Flag for Costa Rica Weather past 2 weeks in Alajuela, Costa Rica

Now
77 °F

Partly sunny.


Feels Like: 79 °F
Forecast: 69 / 78 °F
Wind: 12 mph from East

Location: Juan Santamaria

Current Time: Jul 30, 2015 at 9:13:02 AM

Latest Report: Jul 30, 2015 at 9:00 AM


Visibility: N/A

Pressure: 30.02 "Hg (26.91 "Hg at 955m altitude)

Humidity: 65%

Dew point: 64 °F

Location of AlajuelaLocation

Historic Weather in Alajuela — Graph

°F

Alajuela temperature yesterday

Maximum temperature yesterday: 84 °F (at 11:00 AM)
Minimum temperature yesterday: 70 °F (at 1:00 AM)
Average temperature yesterday: 74 °F

Past Weeks' High & Low Weather Summary

 TemperatureHumidityPressure
High86 °F (Jul 22, 1:00 PM)100% (Jul 18, 5:00 AM)30.12 "Hg (Jul 18, 5:00 AM)
Low61 °F (Jul 21, 5:00 AM)35% (Jul 15, 1:00 PM)26.71 "Hg (Jul 17, 2:00 PM)
Average74 °F71%30.00 "Hg
* Reported Jul 15 8:00 AM — Jul 30 8:00 AM, Alajuela, Weather by CustomWeather, © 2015

Note: Actual official high and low records may vary slightly from our data, if they occured in-between our weather recording intervals... More about our weather records

Advertising

Alajuela weather history for previous 24 hours

 ConditionsComfort  
Time TempWeatherWind HumidityBarometerVisibility
8:00 AM
Thu, Jul 30
75 °FScattered clouds.14 mph65%30.02 "HgN/A
7:00 AM73 °FScattered clouds.12 mph69%30.01 "HgN/A
6:00 AM72 °FScattered clouds.9 mph73%30.00 "HgN/A
5:00 AM72 °FPassing clouds.8 mph73%29.99 "HgN/A
4:00 AM72 °FPassing clouds.7 mph73%29.98 "HgN/A
3:00 AM72 °FPassing clouds.12 mph73%29.98 "HgN/A
2:00 AM72 °FPassing clouds.8 mph73%29.98 "HgN/A
1:00 AM70 °FPassing clouds.9 mph83%30.00 "HgN/A
12:00 AM70 °FPassing clouds.6 mph88%30.02 "HgN/A
11:00 PM
Wed, Jul 29
70 °FPassing clouds.3 mph94%30.04 "HgN/A
10:00 PM70 °FPassing clouds.2 mph94%30.06 "HgN/A
9:00 PM70 °FPartly cloudy.No wind94%30.06 "HgN/A
8:00 PM70 °FPartly cloudy.2 mph94%30.03 "HgN/A
7:00 PM70 °FPartly cloudy.No wind94%30.01 "HgN/A
6:00 PM70 °FPartly cloudy.3 mph94%29.98 "HgN/A
5:00 PM70 °FBroken clouds.6 mph94%29.98 "HgN/A
4:00 PM73 °FRain. Broken clouds.3 mph89%29.96 "Hg5 mi
3:00 PM75 °FScattered clouds.12 mph78%29.96 "HgN/A
2:00 PM77 °FScattered clouds.10 mph74%29.96 "HgN/A
1:00 PM82 °FBroken clouds.7 mph51%29.97 "HgN/A
12:00 PM82 °FPartly sunny.8 mph51%29.98 "HgN/A
11:00 AM84 °FPartly sunny.8 mph45%29.99 "HgN/A
10:00 AM82 °FSunny.9 mph48%29.99 "Hg10 mi
9:00 AM79 °FSunny.9 mph58%30.00 "Hg10 mi
Weather by CustomWeather, © 2015

See weather overviewHow to use our weather pages